Regional Weather Roundup
Issued by NWS Albany, NY

Home | Current Version | Previous Version | Text Only | Print | Product List | Glossary On
Versions: 1 2 3 4 5 6 7 8 9 10 11 12 13 14 15 16 17 18 19 20 21 22 23 24 25 26 27 28 29 30 31 32 33 34 35 36 37 38 39 40 41 42 43 44 45 46 47 48
000
ASUS41 KALY 301210
RWRALY

NEW YORK STATE HOURLY WEATHER ROUNDUP
NATIONAL WEATHER SERVICE ALBANY NY
700 AM EST FRI JAN 30 2015

NOTE: "FAIR" INDICATES FEW OR NO CLOUDS BELOW 12,000 FEET WITH NO
SIGNIFICANT WEATHER AND/OR NO OBSTRUCTIONS TO VISIBILITY.

NYZ032-033-038>043-046>054-057>066-NYZ062>081-301300-
EAST


CITY           SKY/WX    TMP DP  RH WIND       PRES   REMARKS
ALBANY         LGT SNOW  28  24  85 S8        29.84S FOG     WCI  20
GLENS FALLS    CLOUDY    27  24  89 VRB3      29.81F
POUGHKEEPSIE   CLOUDY    30  26  85 SW3       29.84S
NEWBURGH       CLOUDY    27  25  93 W9        29.83F FOG     WCI  17
MONTGOMERY     LGT SNOW  26  24  92 SW5       29.83R FOG     WCI  20
WHITE PLAINS   CLOUDY    30  28  92 NW7       29.81F WCI  23
ISLIP          FLURRIES  34  30  85 CALM      29.82F
NEW YORK CITY  FLURRIES  33  25  72 NW12      29.84S WCI  24
CENTRAL PARK   CLOUDY    33  26  75 W7        29.85F WCI  27
$$

NYZ005>009-017-018-044>046-055-056-301300-
CENTRAL


CITY           SKY/WX    TMP DP  RH WIND       PRES   REMARKS
FULTON         LGT SNOW  28  22  78 NW13      29.89R WCI  17
SYRACUSE       LGT SNOW  24  24 100 NW13      29.88R FOG     WCI  12
ROME           CLOUDY    28  24  85 W10       29.86R WCI  19
ELMIRA         FLURRIES  30  23  75 NW14G21   29.87R WCI  19
BINGHAMTON     FLURRIES  26  23  88 NW8       29.79R WCI  18
MONTICELLO     CLOUDY    23  21  93 W7        29.79R WCI  15
$$

NYZ026>034-041>043-301300-
NORTH


CITY           SKY/WX    TMP DP  RH WIND       PRES   REMARKS
WATERTOWN      LGT SNOW  25  18  74 NW12      29.91R WCI  14
FORT DRUM      NOT AVBL
MASSENA        LGT SNOW  23  21  92 W13       29.86R FOG     WCI  11
SARANAC LAKE   FLURRIES  22  20  92 SW3       29.70R
PLATTSBURGH    LGT SNOW  26  24  92 S3        29.79F FOG
$$

NYZ001>004-010>016-019>021-301300-
WEST


CITY           SKY/WX    TMP DP  RH WIND       PRES   REMARKS
NIAGARA FALLS  LGT SNOW  23  18  81 NW18G28   30.02R BLWGSNOWWCI   9
BUFFALO        FLURRIES  26  21  81 NW14      29.99R WCI  14
DUNKIRK        FLURRIES  26  22  84 W9        30.03R WCI  17
JAMESTOWN      CLOUDY    21  18  86 W14       29.96R WCI   8
WELLSVILLE     LGT SNOW  24  19  81 NW14      29.88R WCI  12
ROCHESTER      FLURRIES  28  23  81 NW13      29.95R WCI  17
PENN YAN       LGT SNOW  28  23  81 NW9G18    29.89R WCI  19
$$

             KEY
       WCI = WIND CHILL INDEX
       VSB = VISIBILITY
       HX  = HEAT INDEX
$$


USA.gov is the U.S. government's official web portal to all federal, state and local government web resources and services.